Regional Weather Roundup
Issued by NWS Bismarck, ND

Home | Current Version | Previous Version | Text Only | Print | Product List | Glossary On
Versions: 1 2 3 4 5 6 7 8 9 10 11 12 13 14 15 16 17 18 19 20 21 22 23 24 25 26 27 28 29 30 31 32 33 34 35 36 37 38 39 40 41 42 43 44 45 46 47 48 49 50
000
ASUS43 KBIS 180010
RWRBIS

NWR BROADCAST TEXT
NATIONAL WEATHER SERVICE BISMARCK ND
600 PM CST SUN DEC 17 2017

NOTE: "FAIR" INDICATES FEW OR NO CLOUDS BELOW 12,000 FEET WITH NO
SIGNIFICANT WEATHER AND/OR OBSTRUCTIONS TO VISIBILITY.


CITY           SKY/WX    TMP DP  RH WIND       PRES   REMARKS
WILLISTON      CLOUDY    35  20  54 SW12      29.70R
MINOT          FAIR      37  25  61 S10       29.68F
MINOT AFB      PTCLDY    34  24  68 SW10      29.66F
BISMARCK       FAIR      29  20  69 S8        29.79F
DICKINSON      MOCLDY    36  24  62 SW13      29.71F
GARRISON         N/A     36  28  73 SW10      29.71F
HETTINGER ARPT PTCLDY    31  21  66 SW8       29.79R
JAMESTOWN      FAIR      31  24  75 S7        29.81F
CARRINGTON     FAIR      30  25  80 S12       29.81F
LINTON           N/A     34  21  60 S14       29.83F
OAKES            N/A     25  25 100 S9        29.87S WCI  15
TIOGA          FAIR      32  19  59 SW17      29.68R
$$

CITY           SKY/WX    TMP DP  RH WIND       PRES   REMARKS
GRAND FORKS    CLEAR     19  18  95 S8        29.84F WCI   9
GRAND FORKS AF CLEAR     21  18  87 S10       29.82F WCI  10
DEVILS LAKE    CLEAR     29  23  78 S10       29.76F WCI  20
FARGO          CLEAR     30  28  92 S9        29.88S
CANDO          FAIR      25  25 100 S13       29.75F WCI  13
CAVALIER       FAIR      23  18  80 S12       29.77F WCI  12
GWINNER          N/A     25  25 100 S8        29.87F WCI  16
ROLLA          FAIR      25  21  86 S10       29.69S WCI  15
WALHALLA       FAIR      27  21  80 S10       29.75F WCI  17
$$

CITY           SKY/WX    TMP DP  RH WIND       PRES   REMARKS
ABERDEEN       CLOUDY    32  27  81 S7        29.89F
MOBRIDGE       CLEAR     31  24  75 S7        29.82F
BUFFALO          N/A     32  23  69 W7        29.73R
RAPID CITY     CLEAR     30  22  72 NW12      29.81S
GLASGOW        CLOUDY    31  25  78 W7        29.70S
SIDNEY         CLOUDY    37  20  50 W12       29.72S
WOLF POINT     CLOUDY    39  25  57 W9        29.72R
GLENDIVE       CLOUDY    36  19  50 SW13      29.75S
MILES CITY     CLOUDY    36  21  54 SW12      29.78F
BAKER          CLOUDY    34  23  64 W12       29.77S
$$

CITY           SKY/WX    TMP DP  RH WIND       PRES   REMARKS
BILLINGS       CLOUDY    30  24  78 SW14      29.85R WCI  19
GREAT FALLS    CLOUDY    35  19  52 SW22      29.82R
REGINA         PTCLDY    27  23  86 SW13      29.56F WCI  16
ESTEVAN        CLOUDY    32  23  69 SW15      29.64S
$$




USA.gov is the U.S. government's official web portal to all federal, state and local government web resources and services.